Location: ??
(35.1714°N, 128.2806°E)
Time: 15:29:25
(UTC+00:00)

GOES 2 Rocket - Pass Details

Date: 29 October 2020
Orbit: 569 x 1674 km, 28.4° (Epoch: 30 November)

Event Time Altitude Azimuth Distance (km) Brightness Sun altitude
Exits shadow 19:26:43 39° 163° (SSE) 1,165 4.4 -29.0°
Drops below altitude 10° 19:32:12 10° 103° (ESE) 2,667 7.2 -27.9°
Sets 19:35:24 0° 97° (E) 3,815 8.4 -27.2°
